Showing default

OV1-13, 3173

Orbit data source: Space-Track

OV1-13, 3173 is a payload satellite owned by USAF OAR (US) that was launched on Sat, 06 Apr 1968 UTC via an ATLAS F launch vehicle from the Air Force Western Test Range (AFWTR). Payload-class satellites include a variety of spacecraft equipped with specific instruments for various scientific and technological missions. These include communications satellites like Starlink; space stations such as the ISS; scientific satellites like the Hubble; Earth observation satellites from companies like Planet Labs, Umbra, and HawkEye 360; GPS; miniature CubeSats for education and research; and military/defense satellites.

Loading next visibility...
Identifier
3173, 1968-026A
Orbit
Active
Country
Flag of USUS
Related business
Manufacturer
GD/Convair
Mission
Spacecraft
Bus & Motor
OV1, Unknown motor
Mass
107 kg wet, 107 kg dry
Launch date (UTC)
1968-04-06 (58 years ago)
Launch vehicle
ATLAS F
Launch site
Air Force Western Test Range (AFWTR)
Object type
Payload
Rocket body
Debris
Shape & HBR
Unknown
Radar Cross Section
Medium (>0.1 m² and <1 m²)

Expand to show TLE details & history
Last TLE update: 4 hours ago

TLE from 4 hours ago
0 OV1-13
1  3173U 68026A   26036.83558821  .00000344  00000-0  48279-3 0  9997
2  3173  99.9433 351.9546 3853405  37.2312 344.1923  7.25806837528672
Epoch: 2026-02-05T20:03Z
TLE epoch observation values (Epoch: 2026-02-05T20:03:14.821Z)
Latitude
-0.0001°
Longitude
-84.83925°
Altitude
962.955 km
Speed
8.559 km/s
True Right ascension
23h 27m 49s
True Declination
0° 00' 00"
Sunlit
Object was in daylight at epoch
Visualization orbit readout
Latitude
Unknown
Longitude
Unknown
Altitude
Unknown
Speed
Unknown
Apparent Right ascension
Unknown
Apparent Declination
Unknown
Sunlit
N/A
Visualization observer readout
Local Sidereal Time
02:31:25
Azimuth
Unknown
Elevation
Unknown
Doppler factor
Unknown
Orbital elements
Apogee altitude
9,229.027 km
Perigee altitude
546.58 km
Semi-major axis
11,265.941 km
Eccentricity
0.38534
Inclination
99.9433°
RAAN
351.9546°
Arg. of periapsis
37.2312°
True anomaly
322.88117°
Mean anomaly
344.1923°
Eccentric anomaly
334.78738°
Mean motion
1.81506 °/min
Orbital period
198.34 mins
BSTAR
0.00048279
Loading maneuver chart data...
Computing Atmospheric mass density...
Loading historical data...
Loading historical data...
Loading historical data...
Loading historical data...
Loading historical data...
Loading historical data...
Loading historical data...
Other satellites on launch #26 in the year 1968 (1968-04-06 UTC)

Documentation

Showing up to 5 results
|